Regional Weather Roundup
Issued by NWS

Home | Current Version | Previous Version | Graphics & Text | Print | Product List | Glossary Off
Versions: 1 2 3 4 5 6 7 8 9 10 11 12 13 14 15 16 17 18 19 20 21 22 23 24 25 26 27 28 29 30 31 32 33 34 35 36 37 38 39 40 41 42 43 44 45 46 47 48 49 50

000
ASUS43 KDMX 010807
RWRIA

WEATHER ROUNDUP FOR IOWA
NATIONAL WEATHER SERVICE DES MOINES IA
300 AM CDT SAT AUG 01 2015

NOTE: "FAIR" INDICATES FEW OR NO CLOUDS BELOW 12,000 FEET WITH NO
SIGNIFICANT WEATHER AND/OR OBSTRUCTIONS TO VISIBILITY.

* - THESE STATIONS ARE NOT NWS STATIONS...THUS NOT UNDER NWS
QUALITY CONTROL.  THEY ALSO DO NOT REPORT WEATHER SUCH
AS PRECIPITATION OR FOG.

IAZ001>003-012>014-020>022-031>034-043>046-010900-
   NORTHWEST IOWA

CITY           SKY/WX    TMP DP  RH WIND       PRES   REMARKS
CARROLL *      CLEAR     68  64  88 CALM      30.06F
CHEROKEE *     CLEAR     63  63 100 CALM      30.05F
DENISON *      CLEAR     66  63  88 CALM      30.05F
LE MARS *      CLEAR     64  64 100 SW3       30.06F
ORANGE CITY *  CLEAR     66  63  88 SW6       30.06F
SHELDON *      CLEAR     64  63  94 SW7       30.04F
SIOUX CITY     CLEAR     68  64  87 CALM      30.05F
SPENCER        CLEAR     64  58  80 SW7       30.04F
STORM LAKE *   CLEAR     64  59  82 SW7       30.07F
$$

IAZ055>058-069>071-079>083-090>094-010900-
   SOUTHWEST IOWA

CITY           SKY/WX    TMP DP  RH WIND       PRES   REMARKS
ATLANTIC *     PTCLDY    66  66 100 CALM      30.06F
AUDUBON *      CLEAR     66  63  88 CALM      30.08F
CLARINDA *     CLEAR     68  68 100 CALM      30.07F
COUNCIL BLFS * CLEAR     70  66  88 S5        30.06F
CRESTON *      CLEAR     66  64  94 CALM      30.08F
HARLAN  *      CLEAR     66  66 100 CALM      30.10S
LAMONI         CLEAR     67  65  93 N5        30.07S
RED OAK *      MOCLDY    66  66 100 CALM      30.06F
SHENANDOAH *   CLEAR     68  66  94 CALM      30.07F
$$

IAZ047>049-059>061-072>074-084-010900-
   CENTRAL IOWA

CITY           SKY/WX    TMP DP  RH WIND       PRES   REMARKS
AMES           CLEAR     60  58  92 CALM      30.05F
ANKENY *       CLEAR     63  63 100 CALM      30.05F
CHARITON *     MOCLDY    70  66  88 SE5       30.06F
DES MOINES     PTCLDY    73  64  73 CALM      30.04F
GRINNELL*      CLEAR     63  59  88 CALM      30.06F
KNOXVILLE *    CLEAR     68  64  88 SW6       30.05S
MARSHALLTOWN   CLEAR     63  60  90 CALM      30.04F
PELLA *        PTCLDY    64  64 100 SW3       30.07R
PERRY *          N/A     66  64  94 CALM      30.05F
$$

IAZ004>006-015-016-023>025-035-036-010900-
   NORTH CENTRAL IOWA

CITY           SKY/WX    TMP DP  RH WIND       PRES   REMARKS
ALGONA *       CLEAR     63  59  88 SW9       30.04F
CLARION *      CLEAR     59  57  94 S5        30.04F
ESTHERVILLE    CLEAR     63  59  87 SW8       30.04S
FORT DODGE *   CLEAR     63  57  82 S3        30.06F
MASON CITY     CLEAR     59  56  89 S5        30.05F
FOREST CITY *  CLEAR     55  55 100 CALM      30.04F
IOWA FALLS *     N/A     61  57  88 SW3       30.05F
$$

IAZ007>011-017>019-026>030-037>042-050>054-066-010900-
   NORTHEAST IOWA

CITY           SKY/WX    TMP DP  RH WIND       PRES   REMARKS
CEDAR RAPIDS   CLEAR     60  59  96 W6        30.03F
CHARLES CITY * CLEAR     61  59  94 SW3       30.04F
CLINTON *      CLEAR     57  55  94 W5        30.05F
DECORAH *      PTCLDY    63  57  82 W3        30.02F
DUBUQUE        CLEAR     62  57  83 NW6       30.03F
MONTICELLO *   CLEAR     57  57 100 CALM      30.03F
OELWEIN *        N/A     59  59 100 CALM      30.05F
WATERLOO       CLEAR     60  58  92 CALM      30.03F
$$

IAZ064-065-067-068-078-010900-
   EAST CENTRAL IOWA

CITY           SKY/WX    TMP DP  RH WIND       PRES   REMARKS
DAVENPORT      CLEAR     59  57  93 W3        30.04F
IOWA CITY      CLEAR     63  59  87 CALM      30.05F
MT. PLEASANT * CLEAR     64  61  88 CALM      30.04F
MUSCATINE *    CLEAR     64  59  82 CALM      30.04S
QUAD CITIES    CLEAR     61  57  87 S5        30.03F
$$

IAZ062-063-075>077-085>089-095>099-010900-
   SOUTHEAST IOWA

CITY           SKY/WX    TMP DP  RH WIND       PRES   REMARKS
BURLINGTON     CLEAR     65  59  81 N6        30.03F
FAIRFIELD *    CLEAR     64  61  88 N5        30.05S
FORT MADISON * MOCLDY    68  61  77 CALM      30.05F
KEOKUK *       MOCLDY    68  66  94 CALM      30.04S
OSKALOOSA *      N/A     63  63 100 NE3       30.05F
CENTERVILLE *  LGT RAIN  70  68  94 CALM      30.08S
OTTUMWA        CLEAR     66  64  93 CALM      30.04S
WASHINGTON *   CLEAR     61  59  94 CALM      30.06F
$$

ABBREVIATIONS USED IN REMARKS
   TC - TEMPERATURES IN CELSIUS
  WCI - WIND CHILL INDEX
   HX - HEAT INDEX
  VSB - VISIBILITY
$$




USA.gov is the U.S. government's official web portal to all federal, state and local government web resources and services.